Location: Kuffner-Sternwarte
(48.2130°N, 16.2960°E)
Time: 22:08:25
(UTC+01:00)

COROT - Pass Details

Date: 19 January 2018
Orbit: 599 x 890 km, 90.0° (Epoch: 19 January)

Event Time Altitude Azimuth Distance (km) Brightness Sun altitude
Exits shadow 05:27:59 29° 212° (SSW) 1,158 6.7 -21.2°
Drops below altitude 10° 05:30:17 10° 199° (SSW) 2,027 8.1 -20.8°
Sets 05:32:35 0° 195° (SSW) 2,969 9.0 -20.4°
